Flag for Germany Weather past 2 weeks in Germering, Bavaria, Germany

Now
55 °F

Partly sunny.


Feels Like: 54 °F
Forecast: 45 / 67 °F
Wind: 6 mph from Northeast

Location: Landsberg

Current Time: May 24, 2015 at 9:41:25 PM

Latest Report: May 24, 2015 at 8:20 PM


Visibility: N/A

Pressure: 30.07 "Hg

Humidity: 72%

Dew point: 46 °F

Location of GermeringLocation

Historic Weather in Germering — Graph

°F

Germering temperature yesterday

Maximum temperature yesterday: 57 °F (at 2:20 PM)
Minimum temperature yesterday: 45 °F (at 2:20 AM)
Average temperature yesterday: 50 °F

Past Weeks' High & Low Weather Summary

 TemperatureHumidityPressure
High79 °F (May 12, 2:20 PM)100% (May 15, 3:20 PM)30.36 "Hg (May 15, 3:20 PM)
Low41 °F (May 22, 4:20 AM)26% (May 12, 2:20 PM)29.77 "Hg (May 18, 6:20 PM)
Average55 °F76%30.10 "Hg
* Reported May 9 8:20 PM — May 24 8:20 PM, Germering, Weather by CustomWeather, © 2015

Note: Actual official high and low records may vary slightly from our data, if they occured in-between our weather recording intervals... More about our weather records

Advertising

Germering weather history for previous 24 hours

 ConditionsComfort  
Time TempWeatherWind HumidityBarometerVisibility
8:20 PM
Sun, May 24
55 °FPartly sunny.6 mph72%30.07 "HgN/A
7:20 PM55 °FPartly sunny.6 mph72%30.07 "HgN/A
6:20 PM57 °FPartly sunny.6 mph67%30.07 "HgN/A
5:20 PM57 °FBroken clouds.7 mph67%30.07 "HgN/A
4:20 PM57 °FPartly sunny.6 mph67%30.09 "HgN/A
3:20 PM57 °FPartly sunny.7 mph63%30.09 "HgN/A
2:20 PM57 °FBroken clouds.7 mph67%30.09 "HgN/A
1:20 PM55 °FPartly sunny.7 mph72%30.09 "HgN/A
12:20 PM55 °FPartly sunny.7 mph77%30.09 "HgN/A
11:20 AM54 °FBroken clouds.5 mph77%30.09 "Hg5 mi
10:20 AM52 °FBroken clouds.2 mph82%30.09 "Hg5 mi
9:20 AM52 °FBroken clouds.5 mph82%30.09 "Hg5 mi
8:20 AM50 °FBroken clouds.2 mph88%30.09 "Hg4 mi
7:20 AM48 °FLight rain. Partly sunny.3 mph94%30.07 "Hg4 mi
6:20 AM46 °FLight rain. Partly cloudy.2 mph93%30.07 "Hg4 mi
5:20 AM46 °FLight rain. Passing clouds.2 mph93%30.07 "Hg5 mi
4:20 AM46 °FLight rain. Mostly cloudy.3 mph93%30.07 "HgN/A
3:20 AM46 °FLight rain. Mostly cloudy.2 mph93%30.07 "HgN/A
2:20 AM46 °FLight rain. Mostly cloudy.5 mph93%30.07 "Hg5 mi
1:20 AM46 °FLight rain. Passing clouds.8 mph93%30.09 "Hg6 mi
12:20 AM46 °FLight rain. Partly cloudy.7 mph93%30.09 "Hg5 mi
11:20 PM
Sat, May 23
46 °FLight rain. Mostly cloudy.9 mph93%30.09 "Hg5 mi
10:20 PM46 °FLight rain. Mostly cloudy.8 mph93%30.09 "Hg5 mi
9:20 PM48 °FLight rain. Mostly cloudy.9 mph87%30.07 "Hg4 mi
Weather by CustomWeather, © 2015

See weather overviewHow to use our weather pages